This is the latest recevied weather packets stored in our database for station/object KA8DUX-2. If no packets are shown the sender has not sent any weather packets the latest 10 day(s).
| Time | Temp. | Humidity | Pressure | Rain* | Wind** | Luminosity | Snow |
|---|---|---|---|---|---|---|---|
| 1778274201 | 18.33° C | 28% | 1006.2 hPa | 0 mm | - | 354 W/m² | - |
| 1778273898 | 18.89° C | 27% | 1006.3 hPa | 0 mm | - | 372 W/m² | - |
| 1778273595 | 18.89° C | 27% | 1006.2 hPa | 0 mm | - | 439 W/m² | - |
| 1778273291 | 18.89° C | 26% | 1006.5 hPa | 0 mm | - | 524 W/m² | - |
| 1778272988 | 18.89° C | 26% | 1006.4 hPa | 0 mm | - | 527 W/m² | - |
| 1778272684 | 18.89° C | 26% | 1006.4 hPa | 0 mm | - | 542 W/m² | - |
| 1778272380 | 18.89° C | 29% | 1006.7 hPa | 0 mm | - | 558 W/m² | - |
| 1778272076 | 19.44° C | 28% | 1006.7 hPa | 0 mm | - | 605 W/m² | - |
| 1778271774 | 19.44° C | 27% | 1006.7 hPa | 0 mm | - | 625 W/m² | - |
| 1778271471 | 18.89° C | 27% | 1006.8 hPa | 0 mm | - | 625 W/m² | - |
| 1778271167 | 18.89° C | 27% | 1006.7 hPa | 0 mm | - | 605 W/m² | - |
| 1778270864 | 18.89° C | 26% | 1006.7 hPa | 0 mm | - | 628 W/m² | - |
| 1778270560 | 19.44° C | 27% | 1006.9 hPa | 0 mm | - | 652 W/m² | - |
| 1778270256 | 20° C | 26% | 1006.8 hPa | 0 mm | - | 661 W/m² | - |
| 1778269953 | 19.44° C | 25% | 1007.2 hPa | 0 mm | - | 670 W/m² | - |
| 1778269650 | 18.89° C | 26% | 1007.2 hPa | 0 mm | - | 671 W/m² | - |
| 1778269347 | 19.44° C | 25% | 1006.9 hPa | 0 mm | - | 643 W/m² | - |
| 1778269044 | 18.89° C | 27% | 1007 hPa | 0 mm | - | 658 W/m² | - |
| 1778268740 | 18.33° C | 27% | 1007.2 hPa | 0 mm | - | 622 W/m² | - |
| 1778268437 | 18.89° C | 27% | 1007.3 hPa | 0 mm | - | 472 W/m² | - |
| 1778268134 | 18.89° C | 25% | 1007 hPa | 0 mm | - | 489 W/m² | - |
| 1778267831 | 18.33° C | 26% | 1007.3 hPa | 0 mm | - | 473 W/m² | - |
| 1778267528 | 18.89° C | 25% | 1007.5 hPa | 0 mm | - | 565 W/m² | - |
| 1778267225 | 19.44° C | 25% | 1007.3 hPa | 0 mm | - | 487 W/m² | - |
| 1778266921 | 18.89° C | 28% | 1007.3 hPa | 0 mm | - | 604 W/m² | - |
* Rain latest hour (hover to see other rain measurements)
** Current wind speed in m/s (hover to see current wind gust speed)